Other Public Products
Issued by NWS Grand Forks, ND

Home | Current Version | Previous Version | Graphics & Text | Print | Product List | Glossary On
Versions: 1 2 3 4 5 6 7 8 9 10 11 12 13 14 15 16 17 18 19 20 21 22 23 24 25 26 27 28 29 30 31 32 33 34 35 36 37 38 39 40 41 42 43 44 45 46 47 48 49 50
000
FPUS83 KFGF 151010
OPUFGF
PRAIRIE TO PINES WEATHER ROUNDUP
NATIONAL WEATHER SERVICE EASTERN NORTH DAKOTA/GRAND FORKS ND
500 AM CDT TUE APR 15 2014

 **SATELLITE DATA USED TO AUGMENT SKY COVER AT AUTOMATED STATIONS**
 *****  WEATHER ACROSS EASTERN NORTH DAKOTA  *****

CITY           SKY/WX    TMP DP  RH WIND       PRES   REMARKS
GRAND FORKS    CLEAR     15   6  67 NE3       30.14S
GRAND FORKS AF CLEAR     12   5  75 CALM      30.18S
GRAND CITY NWS NOT AVBL
BUXTON         NOT AVBL
DEVILS LAKE    PTCLDY    16   3  57 S7        30.11S WCI   6
FARGO          CLEAR     14   8  77 CALM      30.18F
WAHPETON ARPT  SUNNY     14  10  85 CALM      30.18F
$$

 *****  WEATHER ACROSS CENTRAL AND WESTERN NORTH DAKOTA  *****

CITY           SKY/WX    TMP DP  RH WIND       PRES   REMARKS
JAMESTOWN      MOCLDY    17  12  80 SE9       30.11F WCI   6
BISMARCK       CLEAR     17  10  74 E6        30.07F WCI   9
MINOT          MOCLDY    19  10  68 SE6       30.03F WCI  11
MINOT AFB      MOCLDY    20  11  69 SE13      30.03F WCI   7
GARRISON         N/A     19  10  68 S9        30.02F WCI   8
WILLISTON      CLOUDY    25  10  53 SE9       29.92F WCI  15
DICKINSON      MOCLDY    21  10  62 SE20      29.90F WCI   6
HETTINGER      CLEAR     19  10  68 SE10      29.94F WCI   7
$$

 *****  OTHER OBSERVATIONS NORTHEAST NORTH DAKOTA  *****

CITY           SKY/WX    TMP DP  RH WIND       PRES   REMARKS
WALHALLA       FAIR       7   7 100 SE3       30.16F
LANGDON        FAIR      12   7  79 S6        30.10S WCI   3
CAVALIER       FAIR      12  10  92 CALM      30.18S
GRAFTON        FAIR      14   7  73 NE3       30.18S
CANDO          FAIR      16  10  79 S6        30.11S WCI   7
FORT TOTTEN      N/A     13   5  71 SE5       29.95S WCI   5
ROLLA          CLOUDY    16  10  79 S8        30.08S WCI   5
RUGBY          FAIR      18   9  68 S9        30.09R WCI   6
 ***** THE ABOVE OBSERVATIONS ARE NON NWS ARE NOT QUALITY
        CONTROLLED AND MAY MIS-REPORT RAIN FOR SNOW...
$$

 *****  OTHER OBSERVATIONS SOUTHEAST NORTH DAKOTA *****

CITY           SKY/WX    TMP DP  RH WIND       PRES   REMARKS
COOPERSTOWN    FAIR      16  12  86 S5        30.13S WCI   9
VALLEY CITY    NOT AVBL
OAKES          FAIR      16  10  79 E8        30.14F WCI   5
GWINNER        SUNNY     18  12  79 SE5       30.16F WCI  11
SHEYENNE NWR     N/A     10   8  91 CALM      29.95S
BUFFALO        NOT AVBL
WYNDMERE       NOT AVBL
 ***** THE ABOVE OBSERVATIONS ARE NON NWS ARE NOT QUALITY
       CONTROLLED AND MAY MIS-REPORT RAIN FOR SNOW...
$$

  *****  WEATHER ACROSS NORTHERN MINNESOTA  *****

CITY           SKY/WX    TMP DP  RH WIND       PRES   REMARKS
FLAG ISLAND    CLEAR      3  -2  78 W8        30.14R WCI -10
WARROAD        CLEAR      7  -2  66 NW3       30.15S
ROSEAU         CLEAR      9   0  66 NW5       30.16S WCI   0
HALLOCK        CLOUDY    14   3  62 E3        30.18S
THF RVR FALLS  CLEAR     12   5  73 N3        30.16F
HALSTAD          N/A     13   9  81 CALM        N/A
FOSSTON        CLEAR      9   5  85 N5        30.14F WCI   0
BAUDETTE       CLEAR      6  -1  73 NW7       30.13S WCI  -6
WASKISH        CLEAR      9   1  72 W5        30.13S WCI   0
CROOKSTON      CLEAR     14   7  73 NE3       30.19R
$$
  *****  WEATHER ACROSS CENTRAL AND WEST MINNESOTA  *****

CITY           SKY/WX    TMP DP  RH WIND       PRES   REMARKS
BEMIDJI        CLEAR      4  -3  73 W5        30.12F WCI  -6
PARK RAPIDS    CLEAR     11   5  77 N3        30.11F
WADENA         CLEAR     10   7  85 NW3       30.13S
DETROIT LAKES  CLEAR     12   9  85 CALM      30.14F
MOORHEAD       NOT AVBL
FERGUS FALLS   CLEAR     12   7  79 NW3       30.16F
ELBOW LAKE     FAIR      15   7  71 N9        30.16F WCI   3
MORRIS MN      CLEAR     12   7  79 N5        30.16F WCI   4
STAPLES        CLEAR     10   7  85 NW5       30.13F WCI   2
WHEATON        CLEAR     18  12  79 CALM      30.20F
$$
  *****  WEATHER ELSEWHERE ACROSS MINNESOTA  *****

CITY           SKY/WX    TMP DP  RH WIND       PRES   REMARKS
DULUTH         CLEAR     14   4  64 NW8       30.05S WCI   3
INTRNTL FALLS  CLEAR      6  -1  73 NW6       30.09F WCI  -4
ELY            CLEAR      9   7  92 NW5       30.04S WCI   0
CLOQUET        CLEAR     12   1  62 NW8       30.07S WCI   1
BRAINERD       CLEAR     17   5  59 NW7       30.13S WCI   8
HIBBING        CLEAR     12   3  67 NW9       30.07F WCI   0
ALEXANDRIA     CLEAR     14   6  70 NW5       30.14F WCI   6
SAINT CLOUD    CLEAR     18   8  65 NW6       30.14S WCI  10
MINNEAPOLIS    CLEAR     20   8  60 NW9       30.14R WCI   9
$$

  *****  WEATHER ACROSS SOUTH DAKOTA  *****

CITY           SKY/WX    TMP DP  RH WIND       PRES   REMARKS
SIOUX FALLS    CLEAR     15  12  88 CALM      30.18R
BROOKINGS      NOT AVBL
WATERTOWN      CLEAR     15  11  83 SE3       30.12F
HURON          CLEAR     18  13  80 S7        30.15F WCI   9
SISSETON         N/A     16  11  80 CALM      30.15F
ABERDEEN       CLEAR      9   6  88 CALM      30.16R
MITCHELL       CLEAR     19  16  88 SE7       30.17F WCI  10
PIERRE         CLEAR     15  11  83 E8        30.06F WCI   4
MOBRIDGE       MOCLDY    19  11  70 SE8       30.04F WCI   9
RAPID CITY     CLEAR     19  10  68 SE5       29.89F WCI  12
$$

  *****  SOME WEATHER IN NEARBY STATES *****

CITY           SKY/WX    TMP DP  RH WIND       PRES   REMARKS
GLASGOW MT     PTCLDY    29  11  47 E17       29.73F WCI  17
GREAT FALLS MT FAIR      47  19  33 SW14      29.73F
CHEYENNE WY    CLEAR     33  16  49 W24G31    29.97F WCI  20
SCOTTSBLUFF NE CLEAR     22  18  85 E7        29.98F WCI  13
OMAHA NE       CLEAR     25  20  81 N6        30.19S WCI  18
DES MOINES IA  CLEAR     26  18  71 NW6       30.16S WCI  19
DAVENPORT IA   CLEAR     26  21  81 NW8       30.09R WCI  18
CHICAGO IL     PTCLDY    27  19  72 NW10      30.01R WCI  17
EAU CLAIRE WI  CLOUDY    23  12  62 N8        30.08R WCI  14
LA CROSSE WI   CLOUDY    27  15  61 N9        30.09R WCI  18
$$

  *****  SOME NATIONAL WEATHER *****

CITY           SKY/WX    TMP DP  RH WIND       PRES   REMARKS
LA GUARDIA NY  LGT RAIN  55  54  94 S16G24    29.76F VSB 1
RALEIGH NC     RAIN      68  65  90 S13G21    29.72S FOG
ATLANTA GA     CLOUDY    61  60  97 S5        29.71R
NEW ORLEANS LA CLOUDY    50  47  89 NW21G29   29.98R
OKLAHOMA CITY  CLEAR     31  16  54 SW3       30.24F
ALBUQUERQUE NM CLEAR     43  15  32 E3        30.22S
SALT LAKE CITY FAIR      42  24  49 SE9       30.09F
LOS ANGELES CA FOG       55  54  94 W6        30.00F VSB 1/16
BOISE ID       FAIR      50  21  32 SE13      29.92F
SEATTLE WA     CLOUDY    48  32  53 S8        30.15S
$$

*** WEATHER ACROSS MANITOBA...SASKATCHEWAN AND ONTARIO ***
                ***ONTARIO***

CITY           SKY/WX    TMP DP  RH WIND       PRES   REMARKS
GERALDTON      CLEAR     -4  -9  77 CALM      30.00S
THUNDER BAY    PTCLDY    12   7  79 SW3       30.06S
SIOUX LOOKOUT  CLEAR     -4  -8  84 N3        30.07S
TORONTO        LGT SNOW  30  28  93 NW15      29.65R WCI  19
BIG TROUT LK   PTCLDY    -8 -11  84 NW6       30.03S WCI -21
PICKLE LAKE    NOT AVBL
DRYDEN         CLEAR      1  -4  78 N3        30.07S
KENORA         CLEAR      3  -6  66 N8        30.10F WCI -10
$$
                *** MANITOBA***

CITY           SKY/WX    TMP DP  RH WIND       PRES   REMARKS
BRANDON        MOCLDY    10   7  85 E5        30.10F WCI   2
DAUPHIN        CLOUDY    18   7  62 SW6       30.10F WCI   9
ISLAND LAKE    NOT AVBL
PILOT MOUND    NOT AVBL
THE PAS        PTCLDY    -2 -11  65 SE3       30.11S
THOMPSON       CLEAR    -17 -24  70 NW5       30.16S WCI -29
WINNIPEG       PTCLDY    10   1  67 S5        30.19F WCI   2
LYNN LAKE      CLEAR     -8 -17  65 NE6       30.14S WCI -21
CHURCHILL      CRYSTALS  -6 -11  77 NW16      30.11F WCI -28
GILLAM         PTCLDY    -4 -11  71 W8        30.12S WCI -19
$$
                ***SASKATCHEWAN***

CITY           SKY/WX    TMP DP  RH WIND       PRES   REMARKS
ESTEVAN        MOCLDY    21  16  79 SE12      29.94F WCI   9
KINDERSLEY     MOCLDY    32  21  64 E10       29.63F WCI  24
LLOYDMINSTER   MOCLDY    28  19  69 E13       29.68S WCI  18
PRINCE ALBERT  CLOUDY    23  16  74 E12       29.89F WCI  12
REGINA         CLOUDY    25  14  63 SE21G33   29.86F WCI  10



USA.gov is the U.S. government's official web portal to all federal, state and local government web resources and services.